Lapse_Rate
3.1 3.0 3.1 3.8 4.0 4.5 4.9 5.5 6.1 7.0 7.9 8.7 8.1 6.3 6.0 5.9 5.9 6.0 6.0 5.2 4.8 4.7 4.7 4.8 5.0 4.6 3.9 3.4 3.2 2.8 3.2 3.6 3.8 4.2 4.7 4.9 5.2 5.6
3.2 3.2 3.4 3.8 3.8 4.1 4.4 5.0 5.2 5.7 7.1 6.9 8.3 7.1 6.7 5.9 6.0 6.0 6.1 4.9 4.5 5.1 4.9 4.6 4.2 4.2 4.2 3.9 3.5 2.8 2.8 2.9 3.3 3.8 4.4 4.5 4.7 4.9
2.6 2.8 2.8 3.4 3.5 3.9 4.3 4.6 4.9 5.4 5.8 5.8 5.9 6.3 6.1 6.1 6.2 6.4 6.2 6.1 5.8 4.2 4.8 4.8 4.5 4.1 3.8 3.8 3.6 3.2 2.9 2.6 2.7 3.0 3.8 4.1 4.1 4.3
2.9 3.0 3.1 3.6 3.2 3.6 3.9 4.0 4.3 4.9 5.7 6.2 5.4 5.5 5.9 5.5 5.9 6.0 6.1 5.6 5.7 4.6 4.4 4.6 4.6 4.5 4.2 3.6 3.3 3.0 2.7 2.7 2.4 2.4 2.8 3.2 3.8 3.9
3.3 3.3 3.3 3.5 3.5 3.9 3.9 3.9 4.1 4.5 4.8 5.3 5.4 5.1 5.2 5.1 5.1 5.8 5.3 5.6 5.1 4.1 4.2 4.7 4.8 4.7 4.5 4.1 3.3 2.8 2.7 2.6 2.5 2.3 2.1 2.5 2.9 3.3
3.5 3.5 3.9 4.0 4.2 4.2 4.1 4.0 4.2 4.3 4.7 4.7 5.1 5.0 5.0 4.8 5.5 6.1 6.6 5.5 5.7 5.2 4.6 4.1 4.1 4.2 4.4 4.9 4.1 3.2 2.3 2.3 2.9 2.6 2.2 2.5 2.6 2.8
4.4 3.9 4.1 4.1 3.7 4.4 5.0 4.9 4.6 4.2 4.1 4.1 4.7 5.2 5.6 5.3 5.7 6.9 5.5 6.2 5.9 5.0 4.9 5.2 4.6 4.1 4.0 4.3 4.3 3.7 3.0 2.6 2.4 3.0 2.9 2.5 2.8 3.1
5.2 5.0 4.7 3.8 4.5 5.1 5.6 5.8 5.9 5.8 5.6 5.5 5.7 6.2 7.4 7.3 6.6 6.0 5.5 5.6 6.4 3.9 4.8 5.0 3.3 4.5 4.2 3.5 3.1 2.8 3.5 3.4 3.4 3.1 2.7 2.8 2.6 2.7
5.2 5.0 4.9 5.2 5.0 5.2 5.0 5.1 5.4 5.8 6.6 6.9 6.9 6.7 6.9 6.8 6.2 5.9 5.2 4.7 5.3 5.0 4.4 6.0 4.7 5.2 5.1 3.8 3.1 3.2 3.4 3.8 3.8 3.7 3.4 2.9 2.6 2.6
4.9 5.1 5.2 5.4 5.6 5.6 5.8 5.7 5.8 5.4 5.6 5.9 6.1 6.3 6.6 6.6 6.2 5.9 5.2 5.0 4.5 3.9 3.6 4.8 4.8 4.9 4.9 3.9 2.4 3.2 3.8 4.0 4.0 4.1 3.8 3.2 3.0 2.9
5.1 5.0 5.0 5.3 5.5 6.2 6.5 6.2 6.0 5.8 6.2 6.6 6.6 6.5 6.3 6.6 6.7 4.9 4.2 4.7 5.2 5.2 3.2 4.5 5.4 4.9 4.3 4.4 3.0 1.9 3.5 4.4 4.6 4.4 4.4 3.5 3.1 2.9
5.8 5.1 5.1 6.3 6.6 6.7 7.2 6.8 6.1 6.1 6.8 6.2 6.7 6.2 6.4 5.9 6.2 5.5 5.5 5.0 5.1 5.2 4.0 4.9 4.2 4.5 5.4 3.1 2.7 2.3 3.1 3.2 5.0 5.1 5.4 4.8 3.6 3.4
6.4 5.9 5.8 6.0 6.5 6.7 6.8 7.5 7.2 7.9 8.0 8.1 7.3 6.8 6.5 5.9 5.5 5.1 4.4 4.7 4.9 5.2 4.8 4.1 3.3 2.8 4.2 5.2 3.8 3.0 2.9 3.7 5.4 5.8 5.8 6.1 5.1 4.1
6.9 6.7 6.1 6.2 6.9 7.2 7.5 7.3 7.9 7.8 7.4 7.3 6.6 6.8 6.9 7.0 5.6 5.1 4.6 4.0 3.9 4.0 4.0 3.1 3.4 3.8 4.0 4.1 5.2 3.1 3.5 3.0 3.4 4.4 4.4 4.4 5.8 6.0
7.1 7.0 7.4 7.3 7.3 7.3 7.2 7.7 8.0 8.0 7.7 6.6 6.0 6.4 7.1 7.3 6.1 4.5 4.0 4.0 3.4 3.5 3.9 3.3 3.2 3.1 3.5 4.5 5.0 4.2 4.8 3.9 2.8 3.3 3.1 4.1 5.1 4.9
6.9 6.8 6.9 7.3 7.7 7.7 7.4 7.4 7.7 7.7 7.6 7.6 7.3 7.3 6.7 5.5 5.8 5.3 4.9 4.9 4.3 5.1 3.6 3.3 3.2 3.5 4.0 4.0 4.1 4.4 4.5 5.2 3.1 3.4 3.8 3.3 3.4 3.5
8.1 8.0 6.9 6.9 7.1 7.1 7.0 6.7 7.1 7.3 7.4 7.2 6.9 6.7 6.8 6.6 5.7 5.6 5.6 5.3 5.6 6.0 5.4 4.1 3.4 3.5 3.4 3.6 4.0 4.2 4.3 3.9 4.1 3.7 3.7 4.3 4.1 4.2
8.5 7.8 7.3 6.7 6.5 6.9 7.0 7.0 7.1 7.9 7.8 7.4 7.1 7.1 7.1 6.8 6.4 5.7 5.4 5.6 6.0 6.2 5.9 5.1 4.2 3.6 3.7 4.2 4.0 4.6 3.7 4.1 3.9 3.6 3.4 4.0 4.3 4.7
8.2 7.6 7.1 6.9 6.7 6.8 7.0 7.3 7.5 7.6 7.3 7.7 7.8 7.7 7.6 7.4 6.9 6.4 6.1 5.8 6.0 6.0 6.1 5.7 5.2 5.2 5.4 6.1 5.0 4.2 4.3 3.4 3.5 3.5 3.4 3.3 4.1 4.4
6.9 6.9 7.0 6.8 6.8 7.0 7.4 7.5 7.5 7.8 7.5 7.8 7.6 7.6 7.5 7.5 7.4 7.1 6.6 6.5 6.1 6.0 6.1 5.9 5.4 5.3 5.8 5.7 5.8 4.9 4.2 3.8 3.8 4.2 3.2 2.7 3.3 3.4
6.3 6.6 6.9 7.0 7.1 7.3 7.3 7.3 7.3 7.3 7.0 6.9 7.2 7.3 7.4 7.4 7.5 7.4 7.2 7.4 6.9 6.3 6.2 6.3 5.6 6.0 4.4 4.0 5.0 4.9 4.3 3.9 3.9 4.3 3.5 4.5 4.6 4.1
6.8 7.0 7.0 7.5 7.6 7.7 7.6 6.9 6.3 6.4 6.8 7.1 7.0 7.1 7.2 7.4 7.6 7.3 7.5 7.4 7.1 6.8 6.5 6.1 5.3 4.7 4.5 5.0 5.7 5.1 4.8 4.1 4.1 3.9 4.4 5.2 4.6 4.7
6.9 6.9 7.0 7.3 7.5 7.1 7.1 7.7 7.4 7.2 7.0 7.2 7.3 7.3 7.3 7.0 7.4 7.6 7.8 7.4 7.0 6.9 6.5 6.3 5.8 5.2 5.7 5.3 5.5 4.9 4.3 4.4 4.7 4.9 4.8 4.8 5.1 5.0
Wind_Speed
6 6 5 5 5 6 6 7 6 8 10 6 4 4 6 8 12 12 12 12 13 12 12 13 13 11 11 10 8 8 7 7 7 9 10 12 17 20
5 7 7 6 7 5 6 6 7 8 8 9 8 6 7 10 13 14 14 15 14 14 13 13 12 13 12 11 10 8 7 5 5 6 7 10 13 16
6 7 8 7 6 6 5 6 7 7 9 11 10 9 11 10 12 15 14 13 13 13 13 14 14 14 14 12 10 9 8 5 3 3 4 7 9 11
9 8 10 6 9 8 6 9 8 9 9 13 12 8 10 12 11 11 8 11 12 13 14 15 15 15 15 14 12 10 8 6 4 2 3 5 7 10
10 10 11 9 10 8 7 8 8 7 8 9 10 9 8 7 9 8 7 8 11 14 15 16 15 14 15 16 14 13 10 8 5 2 1 3 5 8
10 10 11 10 11 10 8 9 8 8 8 8 8 9 8 8 6 7 6 4 6 6 10 11 11 12 13 16 15 15 13 10 8 5 2 0 4 6
12 11 11 11 14 13 8 10 9 8 7 7 7 6 8 6 7 4 4 4 3 4 6 6 5 7 10 14 13 13 16 14 12 9 5 4 2 2
12 13 11 12 13 15 15 14 13 11 10 7 7 8 10 7 5 5 3 3 4 1 2 3 2 4 3 7 11 12 14 16 14 13 11 7 5 4
12 12 10 8 9 9 12 13 13 14 15 12 10 8 8 7 4 5 3 3 3 1 1 6 3 5 5 7 11 14 14 16 16 15 13 10 8 7
11 11 11 12 10 9 9 9 8 7 7 6 8 9 9 9 7 5 3 3 2 3 3 3 2 3 2 4 7 9 13 16 17 17 16 12 9 7
11 10 9 10 14 15 9 9 9 8 8 11 14 16 17 15 11 3 3 3 3 3 4 2 2 3 2 2 2 3 8 13 16 17 17 15 11 10
11 10 12 11 16 16 10 9 10 9 7 6 6 7 9 8 12 6 5 5 4 2 4 5 3 3 2 1 2 2 4 6 14 16 17 17 13 9
8 8 7 12 15 16 15 10 11 9 10 8 6 5 4 4 4 4 6 6 5 5 3 4 3 2 2 1 1 1 2 2 5 11 14 17 17 13
9 8 8 13 15 17 14 16 18 13 7 7 4 5 5 5 4 4 4 4 6 5 2 5 2 3 3 2 2 2 2 2 2 3 4 4 9 17
7 10 18 17 16 13 15 17 15 6 5 5 5 5 5 6 4 3 3 6 5 5 8 7 3 3 2 3 2 2 2 3 3 3 3 4 5 4
11 9 11 14 16 13 10 8 5 5 5 5 5 4 4 3 4 3 2 2 2 4 5 10 6 4 3 4 4 2 3 3 2 3 2 2 4 6
11 7 6 6 7 6 6 7 5 4 3 3 4 4 4 5 4 3 3 2 4 3 2 2 3 5 4 3 3 5 5 4 4 3 3 3 4 4
10 8 8 7 7 6 6 6 5 8 3 4 3 4 4 5 5 3 3 4 4 4 4 2 3 2 1 5 13 5 4 4 4 5 4 5 6 5
8 8 7 7 7 6 5 6 6 5 6 4 5 6 4 4 8 5 5 4 5 5 5 4 4 4 3 4 0 17 6 4 3 4 5 6 3 2
7 8 8 7 7 6 6 6 6 6 5 5 6 5 5 5 5 7 6 6 5 5 5 4 4 5 5 3 2 1 11 4 4 4 3 2 3 7
7 7 7 7 6 5 5 5 7 7 7 5 6 6 6 5 5 5 6 11 9 5 6 5 6 11 2 3 2 2 2 12 6 4 4 3 2 1
8 8 7 7 7 6 5 5 6 8 8 7 6 6 7 7 6 6 5 6 6 5 5 3 2 4 4 5 6 3 2 2 9 9 6 5 4 3
8 8 7 7 6 5 5 6 7 7 6 6 6 6 7 7 7 6 5 5 7 6 6 5 3 4 5 6 6 3 3 3 3 4 6 12 10 9
Wind_Direction
291 286 280 278 270 262 257 257 259 287 299 303 274 227 245 232 233 234 250 270 271 276 273 275 276 271 274 278 284 302 314 330 352 3 15 22 31 32
298 299 296 290 287 273 263 259 251 257 269 283 280 273 262 257 256 254 260 271 265 271 270 265 259 258 260 268 273 279 294 315 341 3 25 39 44 40
292 289 290 288 284 283 274 270 265 256 264 276 278 283 275 269 269 261 265 264 267 259 263 263 259 251 247 250 254 262 278 289 317 11 38 50 60 57
300 293 287 286 279 277 276 273 266 267 264 272 280 279 269 278 274 276 273 268 266 265 259 259 257 253 249 236 236 240 257 272 286 332 51 79 70 73
286 284 283 281 278 277 275 278 279 275 268 270 274 282 279 272 274 265 267 276 270 263 268 262 257 253 243 228 224 218 230 246 250 277 354 73 90 88
283 277 278 276 272 277 278 276 277 274 275 270 272 275 282 283 260 271 264 251 279 282 272 254 257 254 251 237 225 213 206 219 240 229 217 14 104 105
285 278 271 264 260 261 268 275 275 276 276 275 267 273 279 276 267 284 267 268 268 256 273 261 254 248 247 236 223 221 208 211 211 217 221 180 141 105
288 289 283 271 271 273 280 280 279 280 277 268 271 269 268 266 260 251 262 285 284 161 264 274 216 245 226 224 231 227 223 216 216 212 201 197 178 156
285 287 288 283 273 280 287 290 289 289 279 278 274 270 278 284 267 259 237 234 240 218 238 272 241 252 232 237 230 228 224 218 214 211 204 199 189 175
281 284 284 283 280 281 283 287 285 281 294 287 279 281 278 278 261 260 265 249 260 251 197 264 237 263 267 228 221 233 225 215 211 208 199 192 195 192
285 280 274 273 272 278 279 276 282 280 264 268 280 279 277 274 270 231 222 224 258 232 189 217 238 267 269 267 239 254 240 217 208 202 197 187 191 191
287 283 283 284 284 277 271 266 271 280 277 277 276 281 277 263 269 240 243 219 218 257 188 189 193 205 274 236 302 268 233 236 209 201 199 190 192 200
288 293 295 296 298 294 289 279 259 267 274 277 266 260 266 268 266 250 233 233 224 234 195 185 184 185 204 232 220 242 228 199 180 195 204 202 198 198
283 289 289 292 293 291 293 279 278 284 290 281 267 274 276 286 259 263 258 237 239 239 213 190 200 194 182 168 238 173 210 208 203 197 191 199 212 211
280 282 290 297 296 295 288 285 282 275 269 271 281 286 276 279 273 252 254 281 267 254 234 204 202 186 175 203 199 200 176 197 201 192 191 200 197 201
279 279 277 284 290 292 299 298 278 270 267 271 273 275 278 267 261 236 219 241 250 266 222 218 212 192 217 220 204 197 200 190 176 205 195 190 200 206
276 277 277 278 283 285 288 291 274 257 282 284 271 267 278 282 262 235 239 237 247 257 231 228 204 194 210 175 209 221 211 216 203 168 175 210 215 208
285 277 278 278 278 285 288 292 288 271 243 253 256 281 283 295 285 254 220 228 252 254 248 213 184 173 197 233 219 218 204 224 204 205 212 232 246 228
273 274 273 279 280 276 274 278 282 280 278 240 266 269 261 269 297 279 246 227 237 246 250 225 201 206 203 239 252 214 217 184 181 208 214 212 226 208
268 270 274 274 269 260 262 270 278 275 265 255 261 252 254 256 272 279 272 256 233 240 247 224 213 212 216 225 200 178 209 176 182 188 188 198 243 271
275 267 267 265 261 258 264 274 278 279 275 265 264 266 251 240 246 260 274 275 250 229 245 244 235 228 161 122 177 206 196 204 184 178 162 179 176 221
259 264 262 254 248 252 263 270 279 278 277 274 274 271 266 253 241 237 253 274 264 254 250 246 177 157 177 206 232 199 180 177 198 205 212 183 173 201
263 261 262 257 254 241 241 256 261 261 265 271 265 259 262 261 245 237 243 255 274 254 248 245 200 180 211 212 211 198 174 172 177 187 215 220 222 221